Location: Arrington
(35.8681°N, 86.7092°W)
Time: 20:26:03
(UTC+00:00)

Hubble Space Telescope - Visible Passes

Search period start: 23 September 2020 00:00
Search period end: 03 October 2020 00:00
Orbit: 536 x 540 km, 28.5° (Epoch: 22 September)

Date Brightness Start Highest point End Pass type
(mag) Time Alt. Az. Time Alt. Az. Time Alt. Az.
25 Sep 2.6 11:02:20 10° SW 11:05:34 22° SSE 11:08:47 10° ESE visible
26 Sep 2.4 10:51:23 10° SW 10:54:46 24° S 10:58:08 10° ESE visible
27 Sep 2.3 10:41:06 13° SW 10:43:57 26° S 10:47:26 10° ESE visible
28 Sep 2.1 10:31:03 18° SW 10:33:10 28° S 10:36:42 10° ESE visible
29 Sep 2.0 10:20:59 23° SSW 10:22:22 29° S 10:25:57 10° ESE visible
30 Sep 1.9 10:10:56 27° SSW 10:11:35 29° S 10:15:10 10° ESE visible
01 Oct 2.0 10:00:53 28° S 10:00:53 28° S 10:04:22 10° ESE visible
02 Oct 2.3 09:50:52 25° SSE 09:50:52 25° SSE 09:53:32 10° SE visible
